This is the latest recevied weather packets stored in our database for station/object KT2UU-13. If no packets are shown the sender has not sent any weather packets the latest 10 day(s).
| Time | Temp. | Humidity | Pressure | Rain* | Wind** | Luminosity | Snow |
|---|---|---|---|---|---|---|---|
| 1778200094 | 16.11° C | 92% | 1015.2 hPa | 0 mm | - | - | - |
| 1778199790 | 16.67° C | 92% | 1015.4 hPa | 0 mm | - | - | - |
| 1778199486 | 16.67° C | 91% | 1015.3 hPa | 0 mm | - | - | - |
| 1778199182 | 17.22° C | 89% | 1015.3 hPa | 0 mm | - | - | - |
| 1778198878 | 17.22° C | 87% | 1015.1 hPa | 0 mm | - | - | - |
| 1778198575 | 17.78° C | 86% | 1015.1 hPa | 0 mm | - | - | - |
| 1778198271 | 17.78° C | 84% | 1014.9 hPa | 0 mm | - | - | - |
| 1778197970 | 17.78° C | 83% | 1014.8 hPa | 0 mm | - | - | - |
| 1778197666 | 17.78° C | 82% | 1014.8 hPa | 0 mm | - | - | - |
| 1778197363 | 18.33° C | 81% | 1014.6 hPa | 0 mm | - | - | - |
| 1778197059 | 18.33° C | 80% | 1014.6 hPa | 0 mm | - | - | - |
| 1778196757 | 18.33° C | 80% | 1014.8 hPa | 0 mm | - | - | - |
| 1778196454 | 18.33° C | 77% | 1014.9 hPa | 0 mm | - | - | - |
| 1778196151 | 18.89° C | 77% | 1014.7 hPa | 0 mm | - | - | - |
| 1778195848 | 18.89° C | 76% | 1014.6 hPa | 0 mm | - | - | - |
| 1778195545 | 18.89° C | 75% | 1014.7 hPa | 0 mm | - | - | - |
| 1778195241 | 18.89° C | 74% | 1014.7 hPa | 0 mm | - | - | - |
| 1778194939 | 18.89° C | 75% | 1014.6 hPa | 0 mm | - | - | - |
| 1778194638 | 18.89° C | 75% | 1014.6 hPa | 0 mm | - | - | - |
| 1778194335 | 18.89° C | 75% | 1014.5 hPa | 0 mm | - | - | - |
| 1778194030 | 18.89° C | 74% | 1014.7 hPa | 0 mm | - | - | - |
| 1778193728 | 18.89° C | 74% | 1014.7 hPa | 0 mm | - | - | - |
| 1778193423 | 18.89° C | 73% | 1014.4 hPa | 0 mm | - | - | - |
| 1778193121 | 19.44° C | 72% | 1014.5 hPa | 0 mm | - | - | - |
| 1778192817 | 19.44° C | 74% | 1014.5 hPa | 0 mm | - | - | - |
* Rain latest hour (hover to see other rain measurements)
** Current wind speed in m/s (hover to see current wind gust speed)